DAL2091 KSYR-KDTW

Flight info

Callsign DAL2091
Flight time 0h 57m
Altitude 34000
Route SYR DINES DONEO TPGUN2
Aircraft A319/M-SDE3FGHIRWY/LB1

Departure

Time 2026-04-25 01:46
Airport Syracuse Hancock International Airport (KSYR)

Arrival

Time 2026-04-25 02:43
Airport Detroit Metropolitan Wayne County Airport (KDTW)
Time Latitude Longitude Altitude Speed Heading
2026-04-25 01:18 43.11507 -76.10931 416 ft 0 kts 273°
2026-04-25 01:34 43.11507 -76.10926 424 ft 3 kts 272°
2026-04-25 01:34 43.11508 -76.10889 420 ft 4 kts 258°
2026-04-25 01:34 43.11517 -76.10859 415 ft 4 kts 212°
2026-04-25 01:35 43.11530 -76.10855 416 ft 1 kts 160°
2026-04-25 01:35 43.11533 -76.10856 418 ft 0 kts 160°
2026-04-25 01:37 43.11510 -76.10847 414 ft 9 kts 166°
2026-04-25 01:37 43.11416 -76.10835 420 ft 16 kts 176°
2026-04-25 01:37 43.11306 -76.10827 418 ft 16 kts 178°
2026-04-25 01:38 43.11195 -76.10823 420 ft 16 kts 178°
2026-04-25 01:38 43.11084 -76.10819 420 ft 16 kts 178°
2026-04-25 01:38 43.11004 -76.10745 416 ft 15 kts 111°
2026-04-25 01:38 43.11007 -76.10607 425 ft 15 kts 81°
2026-04-25 01:39 43.11016 -76.10462 424 ft 16 kts 88°
2026-04-25 01:39 43.11021 -76.10292 419 ft 20 kts 87°
2026-04-25 01:39 43.11027 -76.10104 424 ft 20 kts 88°
2026-04-25 01:39 43.11034 -76.09884 424 ft 25 kts 87°
2026-04-25 01:40 43.11042 -76.09653 426 ft 24 kts 87°
2026-04-25 01:40 43.11049 -76.09425 425 ft 24 kts 88°
2026-04-25 01:40 43.11010 -76.09268 419 ft 16 kts 167°
2026-04-25 01:40 43.10930 -76.09326 422 ft 15 kts 252°
2026-04-25 01:41 43.10921 -76.09528 429 ft 34 kts 267°
2026-04-25 01:41 43.10906 -76.09950 424 ft 54 kts 267°
2026-04-25 01:41 43.10887 -76.10530 426 ft 33 kts 267°
2026-04-25 01:41 43.10883 -76.10736 425 ft 27 kts 268°
2026-04-25 01:42 43.10875 -76.11039 428 ft 36 kts 267°
2026-04-25 01:42 43.10894 -76.11325 423 ft 24 kts 316°
2026-04-25 01:42 43.10990 -76.11284 422 ft 18 kts 85°
2026-04-25 01:42 43.10994 -76.11093 425 ft 22 kts 87°
2026-04-25 01:43 43.11002 -76.10830 419 ft 26 kts 87°
2026-04-25 01:43 43.11009 -76.10633 425 ft 20 kts 88°
2026-04-25 01:43 43.11012 -76.10494 424 ft 14 kts 88°
2026-04-25 01:43 43.11018 -76.10331 424 ft 21 kts 87°
2026-04-25 01:44 43.11026 -76.10130 424 ft 21 kts 88°
2026-04-25 01:44 43.11032 -76.09924 424 ft 24 kts 88°
2026-04-25 01:44 43.11039 -76.09695 427 ft 24 kts 87°
2026-04-25 01:44 43.11047 -76.09466 425 ft 24 kts 88°
2026-04-25 01:45 43.11016 -76.09272 421 ft 20 kts 160°
2026-04-25 01:45 43.10930 -76.09336 428 ft 15 kts 251°
2026-04-25 01:45 43.10923 -76.09484 429 ft 20 kts 268°
2026-04-25 01:45 43.10900 -76.10040 421 ft 95 kts 267°
2026-04-25 01:46 43.10867 -76.11220 428 ft 151 kts 267°
2026-04-25 01:46 43.10829 -76.12765 919 ft 156 kts 269°
2026-04-25 01:46 43.10813 -76.14193 1741 ft 149 kts 270°
2026-04-25 01:46 43.10782 -76.15631 2272 ft 157 kts 269°
2026-04-25 01:47 43.10744 -76.17227 2620 ft 179 kts 269°
2026-04-25 01:47 43.11075 -76.18944 2910 ft 200 kts 306°
2026-04-25 01:47 43.12182 -76.20131 3219 ft 217 kts 342°
2026-04-25 01:47 43.13753 -76.20352 3547 ft 240 kts
2026-04-25 01:48 43.15488 -76.20135 4132 ft 258 kts
2026-04-25 01:48 43.17298 -76.19829 5045 ft 264 kts
2026-04-25 01:48 43.19119 -76.19457 6085 ft 264 kts
2026-04-25 01:48 43.20922 -76.19049 7118 ft 262 kts
2026-04-25 01:49 43.22717 -76.19248 8041 ft 259 kts 340°
2026-04-25 01:49 43.24260 -76.20475 9012 ft 257 kts 316°
2026-04-25 01:49 43.25286 -76.22473 10013 ft 259 kts 295°
2026-04-25 01:49 43.25678 -76.24933 10689 ft 275 kts 281°
2026-04-25 01:50 43.25880 -76.27617 10965 ft 298 kts 279°
2026-04-25 01:50 43.26079 -76.30568 11183 ft 322 kts 279°
2026-04-25 01:50 43.26277 -76.33740 11392 ft 342 kts 278°
2026-04-25 01:50 43.26479 -76.37042 11957 ft 350 kts 278°
2026-04-25 01:51 43.26686 -76.40399 12640 ft 354 kts 279°
2026-04-25 01:51 43.26901 -76.43787 13331 ft 358 kts 279°
2026-04-25 01:51 43.27121 -76.47175 13988 ft 362 kts 279°
2026-04-25 01:51 43.27343 -76.50635 14593 ft 366 kts 279°
2026-04-25 01:52 43.27570 -76.54135 15181 ft 370 kts 279°
2026-04-25 01:52 43.27801 -76.57670 15774 ft 374 kts 279°
2026-04-25 01:52 43.28031 -76.61243 16378 ft 377 kts 279°
2026-04-25 01:52 43.28266 -76.64854 16983 ft 381 kts 279°
2026-04-25 01:53 43.28502 -76.68497 17577 ft 384 kts 279°
2026-04-25 01:53 43.28734 -76.72175 18146 ft 388 kts 279°
2026-04-25 01:53 43.28962 -76.75877 18644 ft 391 kts 279°
2026-04-25 01:53 43.29193 -76.79614 19138 ft 393 kts 279°
2026-04-25 01:54 43.29422 -76.83364 19636 ft 395 kts 279°
2026-04-25 01:54 43.29648 -76.87084 20084 ft 397 kts 279°
2026-04-25 01:54 43.29884 -76.90885 20533 ft 400 kts 279°
2026-04-25 01:54 43.30122 -76.94702 20979 ft 403 kts 279°
2026-04-25 01:55 43.30361 -76.98553 21430 ft 405 kts 279°
2026-04-25 01:55 43.30597 -77.02419 21874 ft 407 kts 279°
2026-04-25 01:55 43.30829 -77.06307 22309 ft 409 kts 279°
2026-04-25 01:55 43.31014 -77.10222 22725 ft 414 kts 276°
2026-04-25 01:56 43.30922 -77.12860 22994 ft 420 kts 270°
2026-04-25 01:56 43.30366 -77.16843 23384 ft 430 kts 262°
2026-04-25 01:56 43.29597 -77.20821 23716 ft 433 kts 262°
2026-04-25 01:56 43.28578 -77.26142 24103 ft 436 kts 262°
2026-04-25 01:57 43.27034 -77.34268 24738 ft 440 kts 262°
2026-04-25 01:57 43.26522 -77.36965 24949 ft 441 kts 262°
2026-04-25 01:57 43.25744 -77.41043 25255 ft 443 kts 262°
2026-04-25 01:58 43.24965 -77.45096 25556 ft 444 kts 261°
2026-04-25 01:58 43.24172 -77.49206 25866 ft 446 kts 261°
2026-04-25 01:58 43.23370 -77.53334 26172 ft 448 kts 261°
2026-04-25 01:58 43.22565 -77.57465 26466 ft 449 kts 261°
2026-04-25 01:59 43.21757 -77.61613 26808 ft 449 kts 261°
2026-04-25 01:59 43.20956 -77.65726 27308 ft 445 kts 261°
2026-04-25 01:59 43.20159 -77.69817 27774 ft 443 kts 261°
2026-04-25 01:59 43.19359 -77.73896 28230 ft 442 kts 261°
2026-04-25 02:00 43.18560 -77.77957 28679 ft 440 kts 261°
2026-04-25 02:00 43.17774 -77.81950 29117 ft 438 kts 261°
2026-04-25 02:00 43.16980 -77.85991 29591 ft 437 kts 261°
2026-04-25 02:00 43.16192 -77.90009 30059 ft 435 kts 261°
2026-04-25 02:01 43.15408 -77.94007 30464 ft 433 kts 261°
2026-04-25 02:01 43.14623 -77.97988 30851 ft 431 kts 260°
2026-04-25 02:01 43.13840 -78.01942 31251 ft 430 kts 260°
2026-04-25 02:01 43.13064 -78.05838 31664 ft 428 kts 260°
2026-04-25 02:02 43.12271 -78.09806 32097 ft 426 kts 261°
2026-04-25 02:02 43.11499 -78.13655 32524 ft 424 kts 261°
2026-04-25 02:02 43.10719 -78.17540 32954 ft 422 kts 261°
2026-04-25 02:02 43.09942 -78.21410 33388 ft 420 kts 261°
2026-04-25 02:03 43.09170 -78.25260 33819 ft 418 kts 261°
2026-04-25 02:03 43.08397 -78.29110 33944 ft 419 kts 261°
2026-04-25 02:03 43.07634 -78.32918 33960 ft 422 kts 261°
2026-04-25 02:04 43.06069 -78.40685 33952 ft 423 kts 261°
2026-04-25 02:04 43.04500 -78.48441 33916 ft 423 kts 261°
2026-04-25 02:05 43.02923 -78.56201 33919 ft 423 kts 260°
2026-04-25 02:05 43.01344 -78.63912 33914 ft 423 kts 260°
2026-04-25 02:06 42.99755 -78.71653 33890 ft 423 kts 259°
2026-04-25 02:06 42.98161 -78.79399 33893 ft 423 kts 259°
2026-04-25 02:07 42.96557 -78.87144 33892 ft 424 kts 259°
2026-04-25 02:07 42.94961 -78.94844 33893 ft 424 kts 259°
2026-04-25 02:08 42.93350 -79.02602 33895 ft 424 kts 259°
2026-04-25 02:08 42.91726 -79.10359 33871 ft 425 kts 259°
2026-04-25 02:09 42.90107 -79.18088 33871 ft 426 kts 259°
2026-04-25 02:09 42.88470 -79.25881 33875 ft 427 kts 259°
2026-04-25 02:10 42.86934 -79.33143 33885 ft 428 kts 258°
2026-04-25 02:10 42.85280 -79.40933 33877 ft 428 kts 258°
2026-04-25 02:11 42.83619 -79.48714 33895 ft 428 kts 258°
2026-04-25 02:11 42.81970 -79.56447 33904 ft 427 kts 258°
2026-04-25 02:12 42.80308 -79.64215 33906 ft 426 kts 258°
2026-04-25 02:12 42.78665 -79.71968 33901 ft 424 kts 262°
2026-04-25 02:13 42.77896 -79.79827 33884 ft 420 kts 267°
2026-04-25 02:13 42.77239 -79.87742 33879 ft 420 kts 266°
2026-04-25 02:14 42.76561 -79.95670 33884 ft 420 kts 266°
2026-04-25 02:14 42.75888 -80.03538 33886 ft 420 kts 266°
2026-04-25 02:15 42.75213 -80.11443 33885 ft 420 kts 266°
2026-04-25 02:15 42.74539 -80.19304 33864 ft 420 kts 266°
2026-04-25 02:16 42.73851 -80.27210 33883 ft 420 kts 266°
2026-04-25 02:16 42.73156 -80.35057 33889 ft 419 kts 266°
2026-04-25 02:17 42.72598 -80.42940 33892 ft 418 kts 269°
2026-04-25 02:17 42.72308 -80.50825 33798 ft 417 kts 270°
2026-04-25 02:17 42.72184 -80.54777 33147 ft 418 kts 269°
2026-04-25 02:18 42.72048 -80.58727 32519 ft 419 kts 269°
2026-04-25 02:18 42.71895 -80.62705 31905 ft 422 kts 269°
2026-04-25 02:18 42.71726 -80.66710 31304 ft 425 kts 268°
2026-04-25 02:18 42.71543 -80.70731 30717 ft 428 kts 268°
2026-04-25 02:19 42.71354 -80.74791 30135 ft 430 kts 268°
2026-04-25 02:19 42.71166 -80.78865 29505 ft 433 kts 268°
2026-04-25 02:19 42.70977 -80.82910 28854 ft 435 kts 268°
2026-04-25 02:19 42.70785 -80.87026 28215 ft 437 kts 268°
2026-04-25 02:20 42.70592 -80.91171 27658 ft 439 kts 268°
2026-04-25 02:20 42.70396 -80.95331 27117 ft 442 kts 267°
2026-04-25 02:20 42.70199 -80.99519 26586 ft 444 kts 267°
2026-04-25 02:20 42.70000 -81.03731 26064 ft 446 kts 267°
2026-04-25 02:21 42.69799 -81.07946 25550 ft 448 kts 267°
2026-04-25 02:21 42.69593 -81.12182 25053 ft 450 kts 267°
2026-04-25 02:21 42.69385 -81.16442 24556 ft 452 kts 267°
2026-04-25 02:21 42.69177 -81.20668 24076 ft 453 kts 267°
2026-04-25 02:22 42.68963 -81.24937 23597 ft 451 kts 267°
2026-04-25 02:22 42.68747 -81.29191 23054 ft 449 kts 266°
2026-04-25 02:22 42.68534 -81.33416 22492 ft 447 kts 266°
2026-04-25 02:22 42.68296 -81.37618 21944 ft 443 kts 265°
2026-04-25 02:23 42.67986 -81.41770 21408 ft 440 kts 264°
2026-04-25 02:23 42.67625 -81.45880 20884 ft 436 kts 263°
2026-04-25 02:23 42.67246 -81.49913 20379 ft 434 kts 263°
2026-04-25 02:23 42.66863 -81.53965 19854 ft 431 kts 263°
2026-04-25 02:24 42.66491 -81.57993 19351 ft 428 kts 263°
2026-04-25 02:24 42.66134 -81.61989 18861 ft 424 kts 263°
2026-04-25 02:24 42.65793 -81.65968 18380 ft 422 kts 263°
2026-04-25 02:24 42.65457 -81.69922 17857 ft 423 kts 263°
2026-04-25 02:25 42.65117 -81.73901 17298 ft 423 kts 262°
2026-04-25 02:25 42.64775 -81.77848 16743 ft 418 kts 262°
2026-04-25 02:25 42.64432 -81.81764 16211 ft 414 kts 262°
2026-04-25 02:25 42.64090 -81.85591 15696 ft 411 kts 262°
2026-04-25 02:26 42.63748 -81.89427 15184 ft 409 kts 262°
2026-04-25 02:26 42.63403 -81.93238 14660 ft 405 kts 262°
2026-04-25 02:26 42.63080 -81.97026 14267 ft 403 kts 263°
2026-04-25 02:26 42.62758 -82.00802 13986 ft 404 kts 262°
2026-04-25 02:27 42.62444 -82.04578 13712 ft 401 kts 262°
2026-04-25 02:27 42.62136 -82.08325 13392 ft 398 kts 262°
2026-04-25 02:27 42.61826 -82.12050 13080 ft 396 kts 262°
2026-04-25 02:27 42.61513 -82.15767 12767 ft 394 kts 262°
2026-04-25 02:28 42.61198 -82.19466 12459 ft 393 kts 262°
2026-04-25 02:28 42.60885 -82.23091 12154 ft 390 kts 262°
2026-04-25 02:28 42.60577 -82.26699 11845 ft 378 kts 262°
2026-04-25 02:28 42.60277 -82.30186 11542 ft 365 kts 262°
2026-04-25 02:29 42.59987 -82.33555 11243 ft 349 kts 262°
2026-04-25 02:29 42.59710 -82.36740 10950 ft 332 kts 261°
2026-04-25 02:29 42.59442 -82.39778 10668 ft 316 kts 261°
2026-04-25 02:29 42.59187 -82.42675 10377 ft 302 kts 261°
2026-04-25 02:30 42.58943 -82.45452 10097 ft 290 kts 261°
2026-04-25 02:30 42.58709 -82.48083 9817 ft 279 kts 261°
2026-04-25 02:30 42.58482 -82.50658 9506 ft 271 kts 261°
2026-04-25 02:30 42.58255 -82.53176 9196 ft 265 kts 260°
2026-04-25 02:31 42.58029 -82.55644 8878 ft 264 kts 261°
2026-04-25 02:31 42.57810 -82.58122 8566 ft 263 kts 261°
2026-04-25 02:31 42.57591 -82.60582 8267 ft 263 kts 261°
2026-04-25 02:31 42.57369 -82.63020 7974 ft 263 kts 261°
2026-04-25 02:32 42.57150 -82.65486 7685 ft 261 kts 261°
2026-04-25 02:32 42.56934 -82.67934 7391 ft 260 kts 262°
2026-04-25 02:32 42.56631 -82.70355 7088 ft 259 kts 250°
2026-04-25 02:32 42.55822 -82.72513 6900 ft 256 kts 240°
2026-04-25 02:33 42.54930 -82.74586 6706 ft 258 kts 240°
2026-04-25 02:33 42.54019 -82.76689 6515 ft 258 kts 240°
2026-04-25 02:33 42.53106 -82.78785 6326 ft 258 kts 240°
2026-04-25 02:33 42.52193 -82.80879 6129 ft 258 kts 240°
2026-04-25 02:34 42.51275 -82.82972 5923 ft 259 kts 240°
2026-04-25 02:34 42.50358 -82.85073 5720 ft 258 kts 240°
2026-04-25 02:34 42.49445 -82.87172 5523 ft 259 kts 240°
2026-04-25 02:34 42.48543 -82.89244 5331 ft 257 kts 240°
2026-04-25 02:35 42.47634 -82.91325 5141 ft 257 kts 240°
2026-04-25 02:35 42.46720 -82.93402 4945 ft 256 kts 240°
2026-04-25 02:35 42.45810 -82.95468 4749 ft 255 kts 240°
2026-04-25 02:35 42.44899 -82.97543 4548 ft 257 kts 240°
2026-04-25 02:36 42.43986 -82.99636 4346 ft 258 kts 240°
2026-04-25 02:36 42.43076 -83.01719 4148 ft 256 kts 240°
2026-04-25 02:36 42.42172 -83.03794 3947 ft 256 kts 240°
2026-04-25 02:36 42.41268 -83.05872 3746 ft 256 kts 240°
2026-04-25 02:37 42.40362 -83.07938 3543 ft 255 kts 240°
2026-04-25 02:37 42.39455 -83.10001 3340 ft 255 kts 240°
2026-04-25 02:37 42.38552 -83.12044 3142 ft 248 kts 240°
2026-04-25 02:37 42.37696 -83.13973 3023 ft 231 kts 240°
2026-04-25 02:38 42.36896 -83.15781 2995 ft 216 kts 240°
2026-04-25 02:38 42.36151 -83.17466 3000 ft 201 kts 242°
2026-04-25 02:38 42.35456 -83.19042 3007 ft 190 kts 242°
2026-04-25 02:38 42.34809 -83.20507 3010 ft 174 kts 242°
2026-04-25 02:39 42.34224 -83.21835 2996 ft 159 kts 242°
2026-04-25 02:39 42.33684 -83.23060 2997 ft 146 kts 242°
2026-04-25 02:39 42.33171 -83.24228 3003 ft 143 kts 243°
2026-04-25 02:39 42.32588 -83.25318 3004 ft 145 kts 229°
2026-04-25 02:40 42.31744 -83.26097 2849 ft 147 kts 215°
2026-04-25 02:40 42.30862 -83.26795 2663 ft 145 kts 214°
2026-04-25 02:40 42.29989 -83.27461 2477 ft 143 kts 213°
2026-04-25 02:40 42.29119 -83.28115 2284 ft 142 kts 214°
2026-04-25 02:41 42.28268 -83.28749 2097 ft 142 kts 213°
2026-04-25 02:41 42.27405 -83.29389 1910 ft 141 kts 213°
2026-04-25 02:41 42.26543 -83.30027 1726 ft 140 kts 212°
2026-04-25 02:41 42.25690 -83.30658 1529 ft 140 kts 211°
2026-04-25 02:42 42.24835 -83.31289 1334 ft 140 kts 209°
2026-04-25 02:42 42.23976 -83.31923 1142 ft 141 kts 207°
2026-04-25 02:42 42.23409 -83.32349 1024 ft 141 kts 208°
2026-04-25 02:42 42.22257 -83.33202 730 ft 142 kts 206°
2026-04-25 02:43 42.21402 -83.33821 646 ft 131 kts 207°
2026-04-25 02:43 42.20757 -83.34300 645 ft 76 kts 208°
2026-04-25 02:43 42.20588 -83.34500 647 ft 16 kts 250°
2026-04-25 02:43 42.20568 -83.34625 648 ft 0 kts 273°
2026-04-25 02:44 42.20568 -83.34626 648 ft 0 kts 273°